Regional Weather Roundup
Issued by NWS Jackson, KY

Home | Current Version | Previous Version | Text Only | Print | Product List | Glossary Off
Versions: 1 2 3 4 5 6 7 8 9 10 11 12 13 14 15 16 17 18 19 20 21 22 23 24 25 26 27 28 29 30 31 32 33 34 35 36 37 38 39 40 41 42 43 44 45 46 47 48 49 50

000
ASUS43 KJKL 271711
RWRJKL

EAST KENTUCKY HOURLY WEATHER ROUNDUP
NATIONAL WEATHER SERVICE JACKSON KY
1200 PM EST TUE JAN 27 2015

NOTE: "FAIR" INDICATES FEW OR NO CLOUDS BELOW 12,000 FEET WITH
NO SIGNIFICANT WEATHER AND/OR OBSTRUCTIONS TO VISIBILITY.

* THESE REPORTS ARE NOT UNDER NWS QUALITY CONTROL AND MAY NOT
  REPORT WEATHER SUCH AS PRECIPITATION AND FOG.

KYZ079-080-083-085-087-088-110-112-115-119-120-271800
...EASTERN KENTUCKY...

CITY           SKY/WX    TMP DP  RH WIND       PRES   REMARKS
JACKSON        CLOUDY    31  19  61 VRB5      29.99S WCI  26
LONDON         CLOUDY    31  21  66 N7        30.01R WCI  24
SOMERSET*      CLOUDY    30  27  86 NE6       30.05S WCI  24
MONTICELLO*    CLOUDY    32  28  85 N7        30.07R WCI  26
MIDDLESBORO*   CLOUDY    32  26  77 N6        30.00S WCI  26
HARLAN APT*    CLOUDY    32  21  64 N6        29.97S WCI  26
BLACK MTN*       N/A     19  19 100 NW5         N/A  WCI  13
PIKEVILLE APT* MOSUNNY   27  18  69 NW7       29.97S WCI  19
BIG SANDY*     SUNNY     28  15  58 CALM      29.99S
MOREHEAD APT*  SUNNY     28  16  59 VRB5      30.05S WCI  23
$$

KYZ035-036-041-042-044-050-067-078-099-271800
...CENTRAL KENTUCKY...

CITY           SKY/WX    TMP DP  RH WIND       PRES   REMARKS
MT STERLING*   MOSUNNY   30  12  47 NE6       30.05F WCI  24
FLEMING/MASON* MOSUNNY   23  15  69 N5        30.08R WCI  17
DANVILLE*      CLOUDY    30  27  86 E7        30.05S WCI  23
RICHMOND*      PTSUNNY   30  21  69 NE5       30.03S WCI  25
LEXINGTON      CLOUDY    28  18  66 N7        30.06R WCI  21
FRANKFORT      CLOUDY    28  21  75 N5        30.06S WCI  23
$$

KYZ091>093-OHZ055-061-077-WVZ005-015-034-035-042-271800
...SOUTHERN OHIO/WEST VIRGINIA...

CITY           SKY/WX    TMP DP  RH WIND       PRES   REMARKS
COVINGTON      PTSUNNY   26  13  57 NE6       30.08S WCI  19
COLUMBUS       PTSUNNY   21  12  68 N9        30.06S WCI  11
DAYTON         MOSUNNY   21  13  71 N9        30.10R WCI  11
WILMINGTON     CLOUDY    20  12  71 NE10      30.06R WCI   9
HUNTINGTON     CLOUDY    22  14  71 CALM      30.04S
CHARLESTON     FLURRIES  21  13  71 VRB3      30.01S
PINEVILLE*     SUNNY     32  14  46 MISG      29.95F
BECKLEY        SUNNY     24   3  40 NW12      29.84F WCI  13
BLUEFIELD      SUNNY     27  10  49 W15G22    29.82F WCI  15
$$

VAZ002-007-008-TNZ017-027-036-066-071-271800
...SOUTHWEST VIRGINIA/EAST TENNESSEE...

CITY           SKY/WX    TMP DP  RH WIND       PRES   REMARKS
WISE*          CLOUDY    28  19  69 W10       29.89F WCI  19
ABINGDON*      CLOUDY    32  19  59 N7        29.90S WCI  25
BRISTOL        CLOUDY    33  23  66 NW7       29.94S WCI  27
KNOXVILLE      FLURRIES  33  30  88 NE5       30.00R WCI  29
OAK RIDGE      CLOUDY    35  30  82 E3        30.02R
CROSSVILLE     CLOUDY    32  28  85 N7        29.98R WCI  26
NASHVILLE      PTSUNNY   42  33  70 N8        30.08R
$$

...KEY TO REMARKS...
VSB - VISIBILITY IN MILES
WCI - WIND CHILL INDEX
HX  - HEAT INDEX

$$



USA.gov is the U.S. government's official web portal to all federal, state and local government web resources and services.